This is the latest recevied weather packets stored in our database for station/object KJ5JYX. If no packets are shown the sender has not sent any weather packets the latest 10 day(s).
| Time | Temp. | Humidity | Pressure | Rain* | Wind** | Luminosity | Snow |
|---|---|---|---|---|---|---|---|
| 1777746477 | 22.78° C | 49% | 1023 hPa | 0 mm | - | 712 W/m² | - |
| 1777746174 | 22.22° C | 53% | 1023 hPa | 0 mm | - | 711 W/m² | - |
| 1777745870 | 21.67° C | 55% | 1023.4 hPa | 0 mm | - | 710 W/m² | - |
| 1777745569 | 22.78° C | 55% | 1023.4 hPa | 0 mm | - | 709 W/m² | - |
| 1777745266 | 22.22° C | 55% | 1023.4 hPa | 0 mm | - | 714 W/m² | - |
| 1777744963 | 22.22° C | 54% | 1023.6 hPa | 0 mm | - | 705 W/m² | - |
| 1777744663 | 21.67° C | 56% | 1023.7 hPa | 0 mm | - | 700 W/m² | - |
| 1777744358 | 21.67° C | 56% | 1023.7 hPa | 0 mm | - | 697 W/m² | - |
| 1777744055 | 21.67° C | 59% | 1023.9 hPa | 0 mm | - | 694 W/m² | - |
| 1777743753 | 21.11° C | 58% | 1024 hPa | 0 mm | - | 691 W/m² | - |
| 1777743449 | 21.67° C | 55% | 1024.3 hPa | 0 mm | - | 686 W/m² | - |
| 1777743147 | 21.67° C | 59% | 1024.4 hPa | 0 mm | - | 681 W/m² | - |
| 1777742845 | 21.67° C | 58% | 1024.4 hPa | 0 mm | - | 674 W/m² | - |
| 1777742541 | 21.67° C | 58% | 1024.4 hPa | 0 mm | - | 668 W/m² | - |
| 1777742237 | 21.11° C | 61% | 1024.7 hPa | 0 mm | - | 663 W/m² | - |
| 1777741934 | 20.56° C | 58% | 1024.7 hPa | 0 mm | - | 655 W/m² | - |
| 1777741631 | 20.56° C | 59% | 1024.7 hPa | 0 mm | - | 651 W/m² | - |
| 1777741328 | 21.11° C | 60% | 1024.5 hPa | 0 mm | - | 641 W/m² | - |
| 1777741023 | 20.56° C | 59% | 1024.6 hPa | 0 mm | - | 631 W/m² | - |
| 1777740721 | 20° C | 57% | 1024.6 hPa | 0 mm | - | 625 W/m² | - |
| 1777740417 | 20.56° C | 56% | 1024.8 hPa | 0 mm | - | 618 W/m² | - |
| 1777740114 | 20° C | 63% | 1024.7 hPa | 0 mm | - | 606 W/m² | - |
| 1777739810 | 20° C | 62% | 1024.9 hPa | 0 mm | - | 595 W/m² | - |
| 1777739507 | 19.44° C | 61% | 1024.8 hPa | 0 mm | - | 584 W/m² | - |
| 1777739204 | 19.44° C | 63% | 1024.8 hPa | 0 mm | - | 573 W/m² | - |
* Rain latest hour (hover to see other rain measurements)
** Current wind speed in m/s (hover to see current wind gust speed)